| time (UTC) | temp F | wind direction | speed MPH | gust MPH | rain 1hr in | rain 24hr in | rain mn in | humidity % | barometer mb |
| 20260902105433 | 56 | 252 | 6.0 | 9.0 | 0.00 | 0.00 | 0.00 | 72 | 1019.1 |
| 20260902103929 | 56 | 269 | 5.0 | 11.0 | 0.00 | 0.00 | 0.00 | 72 | 1019.1 |
| 20260902102424 | 56 | 286 | 10.0 | 18.0 | 0.00 | 0.00 | 0.00 | 72 | 1018.9 |
| 20260902100920 | 56 | 259 | 12.0 | 17.0 | 0.00 | 0.00 | 0.00 | 73 | 1019.1 |
| 20260902095417 | 56 | 280 | 9.0 | 15.0 | 0.00 | 0.00 | 0.00 | 74 | 1019.1 |
| 20260902093911 | 56 | 254 | 9.0 | 13.0 | 0.00 | 0.00 | 0.00 | 75 | 1019.1 |
| 20260902093811 | 56 | 267 | 8.0 | 13.0 | 0.00 | 0.00 | 0.00 | 74 | 1019.0 |
| 20260902090906 | 56 | 282 | 7.0 | 12.0 | 0.00 | 0.00 | 0.00 | 74 | 1019.1 |
| 20260902085402 | 56 | 267 | 8.0 | 12.0 | 0.00 | 0.00 | 0.00 | 75 | 1019.1 |
| 20260902083905 | 56 | 246 | 6.0 | 12.0 | 0.00 | 0.00 | 0.00 | 75 | 1019.1 |
| 20260902082359 | 56 | 291 | 6.0 | 12.0 | 0.00 | 0.00 | 0.00 | 74 | 1018.9 |
| 20260902080855 | 56 | 300 | 9.0 | 11.0 | 0.00 | 0.00 | 0.00 | 74 | 1018.9 |
| 20260902075350 | 56 | 272 | 6.0 | 10.0 | 0.00 | 0.00 | 0.00 | 74 | 1018.7 |
| 20260902073845 | 56 | 271 | 6.0 | 9.0 | 0.00 | 0.00 | 0.00 | 74 | 1018.9 |
| 20260902073046 | 57 | 269 | 9.0 | 14.0 | 0.00 | 0.00 | 0.00 | 74 | 1018.8 |
| 20260902070842 | 57 | 247 | 9.0 | 15.0 | 0.00 | 0.00 | 0.00 | 73 | 1018.5 |
| 20260902065340 | 57 | 255 | 10.0 | 14.0 | 0.00 | 0.00 | 0.00 | 73 | 1018.5 |
| 20260902063838 | 58 | 226 | 10.0 | 15.0 | 0.00 | 0.00 | 0.00 | 72 | 1018.3 |
| 20260902062334 | 58 | 256 | 9.0 | 16.0 | 0.00 | 0.00 | 0.00 | 72 | 1018.4 |
| 20260902060830 | 58 | 251 | 5.0 | 13.0 | 0.00 | 0.00 | 0.00 | 71 | 1018.5 |
| 20260902055326 | 59 | 263 | 6.0 | 13.0 | 0.00 | 0.00 | 0.00 | 70 | 1018.4 |
| 20260902053827 | 59 | 254 | 10.0 | 15.0 | 0.00 | 0.00 | 0.00 | 69 | 1018.3 |
| 20260902052322 | 60 | 287 | 9.0 | 14.0 | 0.00 | 0.00 | 0.00 | 68 | 1018.3 |
| 20260902050817 | 60 | 241 | 8.0 | 14.0 | 0.00 | 0.00 | 0.00 | 66 | 1017.9 |
| 20260902045319 | 60 | 257 | 10.0 | 17.0 | 0.00 | 0.00 | 0.00 | 66 | 1017.5 |
| 20260902043814 | 61 | 243 | 13.0 | 18.0 | 0.00 | 0.00 | 0.00 | 64 | 1017.5 |
| 20260902042310 | 61 | 254 | 13.0 | 26.0 | 0.00 | 0.00 | 0.00 | 64 | 1017.7 |
| 20260902040811 | 61 | 265 | 19.0 | 28.0 | 0.00 | 0.00 | 0.00 | 61 | 1017.7 |
| 20260902035306 | 62 | 242 | 16.0 | 25.0 | 0.00 | 0.00 | 0.00 | 63 | 1017.6 |
| 20260902033802 | 62 | 268 | 12.0 | 23.0 | 0.00 | 0.00 | 0.00 | 64 | 1017.9 |
| 20260902032305 | 60 | 268 | 14.0 | 20.0 | 0.00 | 0.00 | 0.00 | 67 | 1018.0 |
| 20260902030758 | 60 | 0 | 16.0 | 24.0 | 0.00 | 0.00 | 0.00 | 68 | 1017.7 |
| 20260902025259 | 61 | 0 | 19.0 | 30.0 | 0.00 | 0.00 | 0.00 | 66 | 1017.7 |
| 20260902024501 | 62 | 0 | 20.0 | 29.0 | 0.00 | 0.00 | 0.00 | 62 | 1017.6 |
| 20260902022250 | 63 | 0 | 17.0 | 28.0 | 0.00 | 0.00 | 0.00 | 61 | 1017.7 |
| 20260902020751 | 63 | 256 | 19.0 | 31.0 | 0.00 | 0.00 | 0.00 | 60 | 1017.7 |
| 20260902015246 | 63 | 239 | 11.0 | 23.0 | 0.00 | 0.00 | 0.00 | 61 | 1017.9 |
| 20260902013742 | 64 | 271 | 13.0 | 26.0 | 0.00 | 0.00 | 0.00 | 61 | 1018.1 |
| 20260902012935 | 62 | 270 | 13.0 | 20.0 | 0.00 | 0.00 | 0.00 | 65 | 1018.2 |
| 20260902010738 | 62 | 244 | 9.0 | 19.0 | 0.00 | 0.00 | 0.00 | 66 | 1018.4 |
| 20260902005238 | 61 | 242 | 15.0 | 27.0 | 0.00 | 0.00 | 0.00 | 66 | 1018.5 |
| 20260902003733 | 61 | 242 | 20.0 | 28.0 | 0.00 | 0.00 | 0.00 | 66 | 1018.8 |
| 20260902002229 | 62 | 263 | 9.0 | 16.0 | 0.00 | 0.00 | 0.00 | 64 | 1018.6 |
| 20260902002137 | 61 | 263 | 12.0 | 22.0 | 0.00 | 0.00 | 0.00 | 65 | 1018.7 |
| 20260901235226 | 61 | 237 | 13.0 | 21.0 | 0.00 | 0.00 | 0.00 | 65 | 1019.0 |
| 20260901233726 | 61 | 222 | 15.0 | 24.0 | 0.00 | 0.00 | 0.00 | 63 | 1019.0 |
| 20260901232222 | 61 | 230 | 13.0 | 21.0 | 0.00 | 0.00 | 0.00 | 64 | 1019.0 |
| 20260901230717 | 61 | 0 | 14.0 | 25.0 | 0.00 | 0.00 | 0.00 | 65 | 1018.9 |
| 20260901225213 | 60 | 232 | 11.0 | 18.0 | 0.00 | 0.00 | 0.00 | 67 | 1019.2 |
| 20260901223709 | 60 | 222 | 11.0 | 18.0 | 0.00 | 0.00 | 0.00 | 67 | 1019.3 |
| 20260901222209 | 59 | 263 | 15.0 | 21.0 | 0.00 | 0.00 | 0.00 | 68 | 1019.2 |
| 20260901220705 | 58 | 250 | 15.0 | 26.0 | 0.00 | 0.00 | 0.00 | 67 | 1019.3 |
| 20260901215200 | 58 | 0 | 15.0 | 23.0 | 0.00 | 0.00 | 0.00 | 69 | 1019.5 |
| 20260901213701 | 57 | 255 | 15.0 | 23.0 | 0.00 | 0.00 | 0.00 | 70 | 1019.4 |
| 20260901212157 | 57 | 243 | 15.0 | 25.0 | 0.00 | 0.00 | 0.00 | 71 | 1019.5 |
| 20260901210657 | 58 | 0 | 12.0 | 18.0 | 0.00 | 0.00 | 0.00 | 68 | 1019.8 |
| 20260901205153 | 58 | 213 | 8.0 | 19.0 | 0.00 | 0.00 | 0.00 | 66 | 1019.7 |
| 20260901204341 | 58 | 221 | 8.0 | 12.0 | 0.00 | 0.00 | 0.00 | 67 | 1019.6 |
| 20260901202149 | 57 | 300 | 7.0 | 14.0 | 0.00 | 0.00 | 0.00 | 71 | 1019.3 |
| 20260901200646 | 56 | 306 | 7.0 | 18.0 | 0.00 | 0.00 | 0.00 | 72 | 1019.2 |
| 20260901195145 | 56 | 315 | 5.0 | 15.0 | 0.00 | 0.00 | 0.00 | 72 | 1019.0 |
| 20260901193642 | 55 | 273 | 8.0 | 18.0 | 0.00 | 0.00 | 0.00 | 72 | 1018.8 |
| 20260901192137 | 55 | 268 | 9.0 | 17.0 | 0.00 | 0.00 | 0.00 | 72 | 1018.6 |
| 20260901190632 | 54 | 246 | 12.0 | 18.0 | 0.00 | 0.00 | 0.00 | 72 | 1018.2 |
| 20260901185130 | 54 | 277 | 8.0 | 24.0 | 0.00 | 0.00 | 0.00 | 72 | 1018.0 |
| 20260901183628 | 53 | 238 | 11.0 | 20.0 | 0.00 | 0.00 | 0.00 | 72 | 1017.9 |
| 20260901182124 | 53 | 287 | 12.0 | 18.0 | 0.00 | 0.00 | 0.00 | 72 | 1017.9 |
| 20260901182018 | 53 | 252 | 13.0 | 25.0 | 0.00 | 0.00 | 0.00 | 72 | 1017.8 |
| 20260901175828 | 53 | 244 | 13.0 | 21.0 | 0.00 | 0.00 | 0.00 | 71 | 1017.7 |
| 20260901173617 | 53 | 235 | 14.0 | 19.0 | 0.00 | 0.00 | 0.00 | 71 | 1017.7 |
| 20260901172116 | 53 | 247 | 12.0 | 21.0 | 0.00 | 0.00 | 0.00 | 70 | 1017.4 |
| 20260901170612 | 53 | 238 | 11.0 | 22.0 | 0.00 | 0.00 | 0.00 | 69 | 1017.1 |
| 20260901165112 | 53 | 257 | 14.0 | 27.0 | 0.00 | 0.00 | 0.00 | 69 | 1017.2 |
| 20260901163608 | 53 | 265 | 18.0 | 28.0 | 0.00 | 0.00 | 0.00 | 68 | 1016.8 |
| 20260901162105 | 53 | 265 | 15.0 | 22.0 | 0.00 | 0.00 | 0.00 | 66 | 1016.7 |
| 20260901161301 | 54 | 254 | 13.0 | 19.0 | 0.00 | 0.00 | 0.00 | 65 | 1016.8 |
| 20260901155809 | 54 | 216 | 14.0 | 18.0 | 0.00 | 0.00 | 0.00 | 63 | 1016.8 |
| 20260901153559 | 54 | 233 | 10.0 | 15.0 | 0.00 | 0.00 | 0.00 | 64 | 1016.9 |
| 20260901152107 | 55 | 247 | 13.0 | 20.0 | 0.00 | 0.00 | 0.00 | 61 | 1017.0 |
| 20260901152013 | 54 | 225 | 11.0 | 19.0 | 0.00 | 0.00 | 0.00 | 62 | 1016.9 |
| 20260901145051 | 54 | 265 | 11.0 | 18.0 | 0.00 | 0.00 | 0.00 | 62 | 1017.1 |
| 20260901143546 | 54 | 216 | 15.0 | 22.0 | 0.00 | 0.00 | 0.00 | 63 | 1017.3 |
| 20260901142046 | 54 | 205 | 11.0 | 24.0 | 0.00 | 0.00 | 0.00 | 64 | 1017.3 |
| 20260901140543 | 54 | 254 | 19.0 | 31.0 | 0.00 | 0.00 | 0.00 | 66 | 1017.2 |
| 20260901135038 | 54 | 204 | 20.0 | 38.0 | 0.00 | 0.00 | 0.00 | 69 | 1017.2 |
| 20260901133534 | 54 | 220 | 28.0 | 41.0 | 0.00 | 0.00 | 0.00 | 70 | 1016.9 |
| 20260901132035 | 53 | 243 | 30.0 | 43.0 | 0.00 | 0.00 | 0.00 | 72 | 1016.8 |
| 20260901130547 | 54 | 240 | 28.0 | 40.0 | 0.00 | 0.00 | 0.00 | 71 | 1016.9 |
| 20260901125030 | 54 | 236 | 25.0 | 35.0 | 0.00 | 0.00 | 0.00 | 71 | 1016.5 |
| 20260901123526 | 54 | 248 | 26.0 | 37.0 | 0.00 | 0.00 | 0.00 | 69 | 1016.6 |
| 20260901122730 | 54 | 207 | 23.0 | 33.0 | 0.00 | 0.00 | 0.00 | 69 | 1017.2 |
| 20260901120523 | 54 | 273 | 17.0 | 24.0 | 0.00 | 0.00 | 0.00 | 68 | 1017.7 |
| 20260901115018 | 53 | 232 | 10.0 | 14.0 | 0.00 | 0.00 | 0.00 | 68 | 1018.0 |
| 20260901113515 | 53 | 304 | 3.0 | 13.0 | 0.00 | 0.00 | 0.00 | 67 | 1018.2 |
| 20260901112015 | 53 | 317 | 2.0 | 13.0 | 0.00 | 0.00 | 0.00 | 67 | 1018.3 |
| 20260901110512 | 53 | 326 | 3.0 | 14.0 | 0.00 | 0.00 | 0.00 | 66 | 1018.2 |